DW1347 Weather Reports


time (UTC)temp
F
wind
direction
speed
knots
gust
knots
rain 1hr
in
rain 24hr
in
rain mn
in
humidity
%
barometer
mb
20210801192031 66 224 0.0 0.0 0.00 0.00 0.00 61 1039.0
20210801191528 65 288 0.9 0.9 0.00 0.00 0.00 61 1039.4
20210801191027 65 15 1.7 2.6 0.00 0.00 0.00 61 1039.2
20210801190525 65 308 0.9 0.9 0.00 0.00 0.00 65 1039.5
20210801190025 64 61 0.9 4.3 0.00 0.00 0.00 66 1039.5
20210801185523 64 108 3.5 5.2 0.00 0.00 0.00 65 1039.2
20210801185021 63 117 4.3 5.2 0.00 0.00 0.00 69 1039.6
20210801184519 63 78 1.7 1.7 0.00 0.00 0.00 68 1039.8
20210801184018 64 90 4.3 5.2 0.00 0.00 0.00 68 1039.8
20210801183517 65 159 1.7 1.7 0.00 0.00 0.00 63 1039.9
20210801183016 64 30 2.6 4.3 0.00 0.00 0.00 63 1040.0
20210801182514 64 296 1.7 1.7 0.00 0.00 0.00 64 1040.1
20210801182012 64 69 0.9 1.7 0.00 0.00 0.00 63 1040.0
20210801181512 63 246 0.0 0.9 0.00 0.00 0.00 65 1039.8
20210801181010 65 126 2.6 5.2 0.00 0.00 0.00 62 1039.9
20210801180509 64 38 3.5 4.3 0.00 0.00 0.00 61 1039.9
20210801180009 65 50 1.7 1.7 0.00 0.00 0.00 60 1039.9
20210801175507 66 134 2.6 2.6 0.00 0.00 0.00 56 1040.3
20210801175006 63 161 0.9 0.9 0.00 0.00 0.00 59 1040.3
20210801174502 63 336 1.7 2.6 0.00 0.00 0.00 58 1040.1
20210801174000 64 124 2.6 2.6 0.00 0.00 0.00 58 1040.3
20210801173459 63 238 0.0 0.0 0.00 0.00 0.00 57 1040.4
20210801172956 65 312 1.7 1.7 0.00 0.00 0.00 57 1040.6
20210801172456 62 244 0.9 0.9 0.00 0.00 0.00 61 1040.5
20210801171955 63 298 0.9 1.7 0.00 0.00 0.00 60 1040.4
20210801171454 63 279 0.0 0.0 0.00 0.00 0.00 60 1040.4
20210801170952 63 244 0.0 0.0 0.00 0.00 0.00 59 1040.5
20210801170451 62 146 0.9 1.7 0.00 0.00 0.00 59 1040.4
20210801165950 62 331 0.9 0.9 0.00 0.00 0.00 59 1040.8
20210801165447 62 299 0.9 0.9 0.00 0.00 0.00 61 1040.6
20210801164946 63 246 0.9 0.9 0.00 0.00 0.00 56 1040.5
20210801164444 64 215 0.0 0.0 0.00 0.00 0.00 64 1040.4
20210801163944 64 233 0.0 0.0 0.00 0.00 0.00 61 1040.5
20210801163442 62 242 0.0 0.0 0.00 0.00 0.00 61 1040.8
20210801162941 63 243 0.0 0.0 0.00 0.00 0.00 66 1040.4
20210801162439 61 231 0.0 0.0 0.00 0.00 0.00 61 1040.6
20210801161937 62 259 0.9 1.7 0.00 0.00 0.00 60 1040.4
20210801161436 63 255 0.0 0.0 0.00 0.00 0.00 59 1040.4
20210801160935 63 243 0.0 0.0 0.00 0.00 0.00 64 1040.3
20210801160433 63 231 0.0 0.0 0.00 0.00 0.00 68 1040.3
20210801155932 62 232 0.0 0.0 0.00 0.00 0.00 65 1040.4
20210801155428 61 240 0.0 0.0 0.00 0.00 0.00 71 1040.5
20210801154927 60 238 0.0 0.0 0.00 0.00 0.00 77 1040.1
20210801154425 59 321 0.0 0.0 0.00 0.00 0.00 82 1040.1
20210801153923 59 251 0.0 0.9 0.00 0.00 0.00 84 1040.5
20210801153421 59 265 0.9 0.9 0.00 0.00 0.00 84 1040.1
20210801152919 59 241 0.0 0.0 0.00 0.00 0.00 83 1040.4
20210801152418 59 247 0.9 0.9 0.00 0.00 0.00 89 1040.3
20210801151916 58 235 0.0 0.0 0.00 0.00 0.00 87 1040.4
20210801151413 58 247 0.0 0.0 0.00 0.00 0.00 91 1040.1
20210801150912 57 243 0.0 0.0 0.00 0.00 0.00 95 1040.5
20210801150409 57 236 0.0 0.0 0.00 0.00 0.00 99 1040.1
20210801145909 56 241 0.0 0.0 0.00 0.00 0.00 99 1040.1
20210801145404 56 246 0.0 0.0 0.00 0.00 0.00 99 1040.1
20210801144903 56 258 0.0 0.0 0.00 0.00 0.00 99 1040.0
20210801144401 55 250 0.0 0.0 0.00 0.00 0.00 99 1040.4
20210801143902 55 244 0.0 0.0 0.00 0.00 0.00 99 1040.0
20210801143400 55 242 0.0 0.0 0.00 0.00 0.00 99 1040.5
20210801142857 55 256 0.0 0.0 0.00 0.00 0.00 99 1040.1
20210801142356 54 248 0.0 0.0 0.00 0.00 0.00 99 1040.3
20210801141853 54 236 0.0 0.0 0.00 0.00 0.00 99 1040.6
20210801141351 53 230 0.0 0.0 0.00 0.00 0.00 99 1040.4
20210801140849 53 237 0.0 0.0 0.00 0.00 0.00 99 1040.5
20210801140349 53 235 0.0 0.0 0.00 0.00 0.00 99 1040.5
20210801135848 53 237 0.0 0.0 0.00 0.00 0.00 99 1040.1
20210801135346 53 230 0.0 0.0 0.00 0.00 0.00 99 1040.4
20210801134845 53 218 0.0 0.0 0.00 0.00 0.00 99 1040.4
20210801134341 53 239 0.0 0.0 0.00 0.00 0.00 99 1040.3
20210801133840 52 233 0.0 0.0 0.00 0.00 0.00 99 1040.3
20210801133338 52 233 0.0 0.0 0.00 0.00 0.00 99 1040.3
20210801132836 52 239 0.0 0.0 0.00 0.00 0.00 99 1040.0
20210801132335 52 241 0.0 0.0 0.00 0.00 0.00 99 1040.0
20210801131833 52 236 0.0 0.0 0.00 0.00 0.00 99 1040.0
20210801131332 52 233 0.0 0.0 0.00 0.00 0.00 99 1040.0
20210801130830 52 248 0.0 0.0 0.00 0.00 0.00 99 1040.0
20210801130329 52 235 0.0 0.0 0.00 0.00 0.00 99 1040.0
20210801125828 52 244 0.0 0.0 0.00 0.00 0.00 99 1039.9
20210801125327 52 243 0.0 0.0 0.00 0.00 0.00 99 1039.8
20210801124826 52 236 0.0 0.0 0.00 0.00 0.00 99 1039.6
20210801124325 52 223 0.0 0.0 0.00 0.00 0.00 99 1039.8
20210801123824 52 243 0.0 0.0 0.00 0.00 0.00 99 1039.8
20210801123322 52 249 0.0 0.0 0.00 0.00 0.00 99 1039.5
20210801122820 52 228 0.0 0.0 0.00 0.00 0.00 99 1039.8
20210801122318 52 222 0.0 0.0 0.00 0.00 0.00 99 1039.9
20210801121818 52 230 0.0 0.0 0.00 0.00 0.00 99 1039.8
20210801121317 52 236 0.0 0.0 0.00 0.00 0.00 99 1039.6
20210801120816 52 240 0.0 0.0 0.00 0.00 0.00 99 1039.5
20210801120316 51 239 0.0 0.0 0.00 0.00 0.00 99 1039.6
20210801115814 51 238 0.0 0.0 0.00 0.00 0.00 99 1039.8
20210801115314 51 234 0.0 0.0 0.00 0.00 0.00 99 1039.4
20210801114811 52 243 0.0 0.0 0.00 0.00 0.00 99 1039.2
20210801114310 52 227 0.0 0.0 0.00 0.00 0.00 99 1039.4
20210801113805 52 237 0.0 0.0 0.00 0.00 0.00 99 1039.2
20210801113303 52 245 0.0 0.0 0.00 0.00 0.00 99 1039.4
20210801112802 52 227 0.0 0.0 0.00 0.00 0.00 99 1039.8
20210801112301 52 227 0.0 0.0 0.00 0.00 0.00 99 1039.6
20210801111759 52 230 0.0 0.0 0.00 0.00 0.00 99 1039.5
20210801111257 52 236 0.0 0.0 0.00 0.00 0.00 99 1039.6
20210801110755 52 238 0.0 0.0 0.00 0.00 0.00 99 1039.4
20210801110255 52 235 0.0 0.0 0.00 0.00 0.00 99 1039.5
20210801105753 52 227 0.0 0.0 0.00 0.00 0.00 99 1039.4
20210801105250 52 237 0.0 0.0 0.00 0.00 0.00 99 1039.4
20210801104749 52 236 0.0 0.0 0.00 0.00 0.00 99 1039.1
20210801104249 52 238 0.0 0.0 0.00 0.00 0.00 99 1039.4
20210801103748 52 238 0.0 0.0 0.00 0.00 0.00 99 1039.4
20210801103247 52 241 0.0 0.0 0.00 0.00 0.00 99 1039.5
20210801102745 52 240 0.0 0.0 0.00 0.00 0.00 99 1039.4
20210801102246 52 243 0.0 0.0 0.00 0.00 0.00 99 1039.0
20210801101743 52 240 0.0 0.0 0.00 0.00 0.00 99 1039.1
20210801101242 52 237 0.0 0.0 0.00 0.00 0.00 99 1039.2
20210801100742 52 237 0.0 0.0 0.00 0.00 0.00 99 1038.9
20210801100241 52 231 0.0 0.0 0.00 0.00 0.00 99 1039.0
20210801095738 52 216 0.0 0.9 0.00 0.00 0.00 99 1039.2
20210801095237 52 233 0.0 0.0 0.00 0.00 0.00 99 1039.0
20210801094736 52 244 0.0 0.0 0.00 0.00 0.00 99 1039.1
20210801094234 52 226 0.0 0.0 0.00 0.00 0.00 99 1039.0
20210801093734 52 241 0.0 0.0 0.00 0.00 0.00 99 1038.9
20210801093233 52 242 0.0 0.0 0.00 0.00 0.00 99 1039.0
20210801092732 52 254 0.0 0.0 0.00 0.00 0.00 99 1039.1
20210801092232 52 235 0.0 0.0 0.00 0.00 0.00 99 1039.0
20210801091731 52 238 0.0 0.0 0.00 0.00 0.00 99 1039.1
20210801091228 52 229 0.0 0.0 0.00 0.00 0.00 99 1039.1
20210801090726 52 233 0.0 0.0 0.00 0.00 0.00 99 1039.0
20210801090225 52 233 0.0 0.0 0.00 0.00 0.00 99 1039.0
20210801085724 52 235 0.0 0.0 0.00 0.00 0.00 99 1039.2
20210801085222 52 241 0.0 0.0 0.00 0.00 0.00 99 1039.1
20210801084720 52 242 0.0 0.0 0.00 0.00 0.00 99 1039.0
20210801084218 52 231 0.0 0.0 0.00 0.00 0.00 99 1039.2
20210801083715 52 220 0.0 0.0 0.00 0.00 0.00 99 1039.0
20210801083214 52 228 0.0 0.0 0.00 0.00 0.00 99 1039.0
20210801082713 52 235 0.0 0.0 0.00 0.00 0.00 99 1038.9
20210801082213 52 244 0.0 0.0 0.00 0.00 0.00 99 1038.9
20210801081712 52 246 0.0 0.0 0.00 0.00 0.00 99 1039.2
20210801081211 52 239 0.0 0.0 0.00 0.00 0.00 99 1039.1
20210801080710 53 235 0.0 0.0 0.00 0.00 0.00 99 1039.4
20210801080209 53 241 0.0 0.0 0.00 0.00 0.00 99 1039.2
20210801075705 53 224 0.0 0.9 0.00 0.00 0.00 99 1039.4
20210801075204 53 222 0.0 0.0 0.00 0.00 0.00 99 1039.5
20210801074703 53 241 0.0 0.0 0.00 0.00 0.00 99 1039.4
20210801074202 53 230 0.0 0.0 0.00 0.00 0.00 99 1039.8
20210801073700 53 231 0.0 0.0 0.00 0.00 0.00 99 1039.8
20210801073200 53 221 0.0 0.0 0.00 0.00 0.00 99 1039.8
20210801072658 53 252 0.0 0.0 0.00 0.00 0.00 99 1039.8
20210801072157 53 241 0.0 0.0 0.00 0.00 0.00 99 1039.6
20210801071656 53 248 0.0 0.0 0.00 0.00 0.00 99 1039.6
20210801071154 53 226 0.0 0.0 0.00 0.00 0.00 99 1039.9
20210801070653 53 229 0.0 0.0 0.00 0.00 0.00 99 1040.1
20210801070152 53 238 0.0 0.0 0.00 0.00 0.00 99 1039.8
20210801065651 53 225 0.0 0.0 0.00 0.00 0.00 99 1040.1
20210801065150 53 248 0.0 0.0 0.00 0.00 0.00 99 1040.1
20210801064649 53 258 0.0 0.0 0.00 0.00 0.00 99 1040.3
20210801064148 53 246 0.0 0.0 0.00 0.00 0.00 99 1040.1
20210801063646 53 239 0.0 0.0 0.00 0.00 0.00 99 1040.1
20210801063144 53 247 0.0 0.0 0.00 0.00 0.00 99 1040.1
20210801062642 53 241 0.0 0.0 0.00 0.00 0.00 99 1040.0
20210801062141 53 240 0.0 0.0 0.00 0.00 0.00 99 1040.4
20210801061641 53 241 0.0 0.0 0.00 0.00 0.00 99 1040.3
20210801061141 53 239 0.0 0.0 0.00 0.00 0.00 99 1040.3
20210801060640 53 237 0.0 0.0 0.00 0.00 0.00 99 1040.3
20210801060140 53 241 0.0 0.0 0.00 0.00 0.00 99 1040.3
20210801055640 53 245 0.0 0.0 0.00 0.37 0.37 99 1040.0
20210801055139 53 224 0.0 0.0 0.00 0.37 0.37 99 1040.1
20210801054637 54 230 0.0 0.9 0.00 0.37 0.37 99 1040.3
20210801054135 54 241 0.0 0.0 0.00 0.37 0.37 99 1040.1
20210801053633 54 245 0.0 0.0 0.00 0.37 0.37 99 1040.4
20210801053132 54 251 0.0 0.0 0.00 0.37 0.37 99 1040.4
20210801052631 54 301 0.9 1.7 0.00 0.37 0.37 99 1040.3
20210801052129 54 199 0.0 0.0 0.00 0.37 0.37 99 1040.0
20210801051628 54 243 0.0 0.0 0.04 0.37 0.37 99 1040.0
20210801051126 54 240 0.0 0.0 0.11 0.37 0.37 99 1040.3
20210801050620 55 240 0.0 0.0 0.23 0.36 0.36 99 1040.4
20210801050116 55 235 0.0 0.0 0.35 0.35 0.35 99 1040.5
20210801045616 55 290 0.9 0.9 0.30 0.33 0.33 99 1040.5
20210801045115 55 241 0.0 0.0 0.18 0.29 0.29 99 1040.1
20210801044613 55 233 0.0 0.0 0.11 0.28 0.28 99 1040.3
20210801044112 55 241 0.0 0.0 0.04 0.26 0.26 99 1040.3
20210801043608 55 238 0.0 0.0 0.04 0.26 0.26 99 1040.1
20210801043107 55 237 0.0 0.0 0.00 0.25 0.25 99 1040.0
20210801042605 55 239 0.0 0.0 0.00 0.25 0.25 99 1040.1
20210801042104 55 239 0.0 0.0 0.07 0.25 0.25 99 1040.0
20210801041604 55 242 0.0 0.0 0.07 0.25 0.25 99 1040.0
20210801041103 54 237 0.0 0.0 0.00 0.24 0.24 99 1039.8
20210801040601 55 240 0.0 0.0 0.04 0.24 0.24 99 1039.6
20210801040058 55 246 0.0 0.0 0.00 0.23 0.23 99 1040.0
20210801035558 55 244 0.0 0.0 0.07 0.23 0.23 99 1040.0
20210801035057 54 251 0.0 0.0 0.07 0.23 0.23 99 1039.9
20210801034555 55 220 0.9 0.9 0.00 0.22 0.22 99 1039.9
20210801034050 55 227 0.0 0.0 0.00 0.22 0.22 99 1039.8
20210801033550 55 243 0.0 0.0 0.00 0.22 0.22 99 1039.9
20210801033049 55 235 0.0 0.0 0.00 0.22 0.22 99 1040.0
20210801032547 55 243 0.0 0.0 0.00 0.22 0.22 99 1039.8
20210801032046 55 245 0.0 0.0 0.00 0.22 0.22 99 1039.8
20210801031545 55 239 0.0 0.0 0.00 0.22 0.22 99 1039.6
20210801031040 55 243 0.0 0.0 0.00 0.22 0.22 99 1039.8
20210801030540 55 243 0.0 0.0 0.00 0.22 0.22 99 1039.8
20210801030036 55 245 0.0 0.0 0.00 0.22 0.22 99 1039.6
20210801025536 55 240 0.0 0.0 0.00 0.22 0.22 99 1039.5
20210801025034 55 235 0.0 0.0 0.00 0.22 0.22 99 1039.5
20210801024533 55 231 0.0 0.0 0.00 0.22 0.22 99 1039.6
20210801024033 55 232 0.0 0.0 0.00 0.22 0.22 99 1039.5
20210801023532 55 242 0.0 0.0 0.00 0.22 0.22 99 1039.4
20210801023030 55 235 0.0 0.0 0.00 0.22 0.22 99 1039.4
20210801022529 55 231 0.0 0.0 0.00 0.22 0.22 99 1039.1
20210801022028 55 232 0.0 0.0 0.00 0.22 0.22 99 1039.2
20210801021527 55 232 0.0 0.0 0.00 0.22 0.22 99 1039.2
20210801021025 55 231 0.0 0.0 0.00 0.22 0.22 99 1039.4
20210801020524 55 233 0.0 0.0 0.00 0.22 0.22 99 1039.4
20210801020022 55 233 0.0 0.0 0.00 0.22 0.22 99 1039.1
20210801015521 56 236 0.0 0.0 0.00 0.22 0.22 99 1039.0
20210801015020 56 235 0.0 0.0 0.00 0.22 0.22 99 1039.1
20210801014518 56 234 0.0 0.0 0.00 0.22 0.22 99 1039.0
20210801014016 56 245 0.0 0.0 0.00 0.22 0.22 99 1039.2
20210801013513 56 233 0.0 0.0 0.00 0.22 0.22 99 1039.1
20210801013010 56 245 0.0 0.0 0.04 0.22 0.22 99 1039.2
20210801012510 56 237 0.0 0.0 0.04 0.22 0.22 99 1039.0
20210801012009 56 235 0.0 0.0 0.00 0.21 0.21 99 1039.1
20210801011507 56 237 0.0 0.0 0.07 0.21 0.21 99 1039.2
20210801011007 56 241 0.0 0.0 0.07 0.21 0.21 99 1039.1
20210801010501 56 252 0.0 0.0 0.00 0.20 0.20 99 1039.4
20210801010000 56 247 0.0 0.0 0.04 0.20 0.20 99 1039.2
20210801005458 56 253 0.0 0.0 0.04 0.20 0.20 99 1039.1
20210801004957 56 254 0.0 0.0 0.00 0.19 0.19 99 1039.1
20210801004456 56 258 0.0 0.0 0.07 0.19 0.19 99 1039.0
20210801003955 56 238 0.0 0.0 0.14 0.19 0.19 99 1039.4
20210801003454 56 223 0.0 0.0 0.07 0.18 0.18 99 1039.0
20210801002953 56 255 0.0 0.0 0.11 0.16 0.16 99 1039.0
20210801002453 56 336 0.9 0.9 0.16 0.16 0.16 99 1038.9
20210801001953 56 298 2.6 2.6 0.04 0.15 0.15 99 1038.9
20210801001452 56 264 0.9 1.7 0.07 0.14 0.14 99 1038.9
20210801000950 56 256 0.0 0.0 0.11 0.14 0.14 98 1039.0
20210801000450 56 273 0.0 0.9 0.11 0.13 0.13 98 1039.0
20210731235947 57 255 0.0 0.0 0.18 0.12 0.12 98 1039.0
20210731235446 57 246 0.0 0.0 0.16 0.11 0.11 97 1038.9
20210731234944 57 249 0.0 0.0 0.11 0.09 0.09 97 1039.1
20210731234442 57 243 0.0 0.0 0.07 0.08 0.08 96 1038.7
20210731233932 57 243 0.0 0.0 0.04 0.07 0.07 96 1038.9
20210731233431 57 238 0.0 0.9 0.04 0.07 0.07 95 1038.7
20210731232929 57 226 0.0 0.9 0.07 0.06 0.06 94 1038.6
20210731232429 57 234 0.9 0.9 0.07 0.06 0.06 94 1038.6
20210731231928 58 243 0.9 1.7 0.00 0.05 0.05 95 1038.7
20210731231428 58 241 0.0 0.0 0.00 0.05 0.05 95 1038.7
20210731230927 58 239 0.0 0.0 0.00 0.05 0.05 94 1038.7
20210731230425 58 227 0.9 0.9 0.00 0.05 0.05 93 1038.7
20210731225924 59 223 1.7 1.7 0.00 0.05 0.05 94 1038.4
20210731225423 59 247 0.9 0.9 0.00 0.05 0.05 93 1038.5
20210731224923 59 245 0.0 0.0 0.00 0.05 0.05 93 1038.6
20210731224422 59 230 0.0 0.0 0.07 0.05 0.05 93 1038.2
20210731223921 59 222 0.9 0.9 0.07 0.05 0.05 91 1038.6
20210731223417 60 231 0.0 0.0 0.00 0.03 0.03 87 1038.4
20210731222917 60 358 1.7 1.7 0.00 0.03 0.03 85 1038.5
20210731222417 61 116 1.7 1.7 0.00 0.03 0.03 84 1038.5
20210731221907 61 311 0.9 0.9 0.00 0.03 0.03 84 1038.7
20210731221406 61 298 0.9 1.7 0.00 0.03 0.03 84 1038.7
20210731220904 61 240 0.0 0.9 0.00 0.03 0.03 86 1038.7
20210731220403 61 271 0.9 0.9 0.00 0.03 0.03 85 1038.5
20210731215902 61 10 2.6 4.3 0.00 0.03 0.03 84 1038.7
20210731215402 61 304 2.6 4.3 0.00 0.03 0.03 84 1038.5
20210731214857 61 299 1.7 1.7 0.00 0.03 0.03 85 1038.6
20210731214356 61 304 4.3 5.2 0.00 0.03 0.03 84 1038.5
20210731213853 60 304 4.3 6.1 0.00 0.03 0.03 85 1038.4
20210731213352 61 314 2.6 4.3 0.00 0.03 0.03 86 1038.6
20210731212850 62 316 0.9 1.7 0.00 0.03 0.03 85 1038.6
20210731212349 61 15 2.6 4.3 0.00 0.03 0.03 84 1038.4
20210731211848 62 252 0.9 0.9 0.00 0.03 0.03 84 1038.2
20210731211346 61 52 1.7 1.7 0.00 0.03 0.03 83 1038.5
20210731210844 61 293 1.7 1.7 0.00 0.03 0.03 81 1038.5
20210731210344 61 252 1.7 1.7 0.00 0.03 0.03 86 1038.7
20210731205843 61 298 0.9 1.7 0.00 0.03 0.03 84 1038.7
20210731205341 60 336 2.6 2.6 0.00 0.03 0.03 85 1038.6
20210731204838 60 325 0.9 1.7 0.00 0.03 0.03 87 1038.9
20210731204337 60 279 0.9 0.9 0.00 0.03 0.03 88 1038.4
20210731203837 60 244 0.9 1.7 0.04 0.03 0.03 88 1038.4
20210731203337 61 351 1.7 1.7 0.04 0.03 0.03 88 1038.6
20210731202835 61 100 0.9 1.7 0.07 0.03 0.03 90 1038.7
20210731202335 60 240 0.0 0.0 0.07 0.03 0.03 91 1038.9
20210731201834 60 11 3.5 5.2 0.04 0.02 0.02 88 1038.9
20210731201333 60 278 2.6 2.6 0.04 0.02 0.02 89 1038.6
20210731200831 60 252 0.9 1.7 0.07 0.01 0.01 88 1038.9
20210731200329 61 317 2.6 2.6 0.07 0.01 0.01 86 1038.9
20210731195827 61 309 2.6 2.6 0.00 0.00 0.00 84 1038.6
20210731195326 61 250 1.7 1.7 0.00 0.00 0.00 84 1038.5
20210731194826 61 273 1.7 1.7 0.00 0.00 0.00 83 1038.9
20210731194323 61 300 0.9 0.9 0.00 0.00 0.00 83 1038.9
20210731193822 62 229 0.9 0.9 0.00 0.00 0.00 82 1038.6
20210731193320 61 168 0.9 1.7 0.00 0.00 0.00 83 1038.7
20210731192819 62 359 3.5 5.2 0.00 0.00 0.00 83 1038.7
20210731192319 62 196 0.0 0.9 0.00 0.00 0.00 82 1038.6